Location: Chavannes
(47.1090°N, 0.2226°W)
Time: 14:56:37
(UTC+00:00)

HJ-1C - Pass Details

Date: 16 October 2021
Orbit: 422 x 433 km, 97.1° (Epoch: 07 December)

Event Time Altitude Azimuth Distance (km) Brightness Sun altitude
Exits shadow 18:51:21 20° 167° (SSE) 1,035 5.0 -17.7°
Maximum altitude 18:53:27 90° 318° (NW) 430 3.2 -18.1°
Drops below altitude 10° 18:56:43 10° 348° (NNW) 1,526 6.3 -18.7°
Sets 18:58:45 0° 348° (NNW) 2,399 7.3 -19.0°
